| time (UTC) | temp F | wind direction | speed MPH | gust MPH | rain 1hr in | rain 24hr in | rain mn in | humidity % | barometer mb |
| 20260508033058 | 55 | 240 | 0.0 | 1.0 | 0.00 | 0.01 | 0.01 | 42 | 1008.8 |
| 20260508031605 | 55 | 217 | 0.0 | 1.0 | 0.00 | 0.01 | 0.01 | 41 | 1008.7 |
| 20260508030105 | 55 | 232 | 0.0 | 0.0 | 0.00 | 0.01 | 0.01 | 43 | 1008.6 |
| 20260508024555 | 56 | 232 | 0.0 | 1.0 | 0.00 | 0.01 | 0.01 | 40 | 1008.4 |
| 20260508023054 | 57 | 241 | 0.0 | 0.0 | 0.00 | 0.01 | 0.01 | 36 | 1008.3 |
| 20260508021600 | 59 | 241 | 0.0 | 1.0 | 0.00 | 0.01 | 0.01 | 32 | 1008.3 |
| 20260508020053 | 60 | 240 | 0.0 | 2.0 | 0.00 | 0.01 | 0.01 | 30 | 1008.2 |
| 20260508014552 | 61 | 260 | 0.0 | 3.0 | 0.00 | 0.01 | 0.01 | 30 | 1008.2 |
| 20260508013051 | 62 | 264 | 0.0 | 1.0 | 0.00 | 0.01 | 0.01 | 29 | 1008.0 |
| 20260508011554 | 64 | 256 | 1.0 | 3.0 | 0.00 | 0.01 | 0.01 | 27 | 1008.2 |
| 20260508010050 | 64 | 216 | 0.0 | 3.0 | 0.00 | 0.01 | 0.01 | 26 | 1008.2 |
| 20260508004549 | 63 | 258 | 1.0 | 3.0 | 0.00 | 0.01 | 0.01 | 27 | 1008.1 |
| 20260508003048 | 63 | 69 | 1.0 | 4.0 | 0.00 | 0.01 | 0.01 | 27 | 1008.1 |
| 20260508001546 | 66 | 264 | 2.0 | 8.0 | 0.00 | 0.01 | 0.01 | 24 | 1008.3 |
| 20260508000101 | 67 | 257 | 1.0 | 8.0 | 0.00 | 0.01 | 0.01 | 25 | 1008.5 |
| 20260507234547 | 65 | 279 | 3.0 | 8.0 | 0.00 | 0.03 | 0.01 | 26 | 1008.5 |
| 20260507233042 | 64 | 263 | 5.0 | 11.0 | 0.00 | 0.03 | 0.01 | 26 | 1008.6 |
| 20260507231545 | 65 | 284 | 1.0 | 9.0 | 0.00 | 0.03 | 0.01 | 26 | 1008.8 |
| 20260507230039 | 66 | 242 | 2.0 | 6.0 | 0.00 | 0.03 | 0.01 | 26 | 1009.0 |
| 20260507224539 | 66 | 260 | 3.0 | 8.0 | 0.00 | 0.05 | 0.01 | 26 | 1009.1 |
| 20260507223038 | 68 | 260 | 3.0 | 10.0 | 0.00 | 0.05 | 0.01 | 26 | 1009.3 |
| 20260507221536 | 68 | 275 | 3.0 | 9.0 | 0.00 | 0.05 | 0.01 | 25 | 1009.6 |
| 20260507220033 | 68 | 290 | 4.0 | 11.0 | 0.00 | 0.05 | 0.01 | 26 | 1010.0 |
| 20260507214532 | 68 | 272 | 4.0 | 9.0 | 0.00 | 0.14 | 0.01 | 25 | 1010.2 |
| 20260507213037 | 68 | 255 | 5.0 | 12.0 | 0.00 | 0.14 | 0.01 | 27 | 1010.2 |
| 20260507211541 | 67 | 261 | 1.0 | 8.0 | 0.00 | 0.14 | 0.01 | 28 | 1010.8 |
| 20260507210026 | 67 | 248 | 0.0 | 5.0 | 0.00 | 0.14 | 0.01 | 31 | 1011.2 |
| 20260507204524 | 65 | 239 | 1.0 | 5.0 | 0.00 | 0.19 | 0.01 | 28 | 1011.6 |
| 20260507203021 | 65 | 263 | 2.0 | 6.0 | 0.00 | 0.19 | 0.01 | 28 | 1012.1 |
| 20260507201519 | 65 | 249 | 2.0 | 7.0 | 0.00 | 0.19 | 0.01 | 29 | 1012.5 |
| 20260507200017 | 65 | 261 | 3.0 | 6.0 | 0.00 | 0.19 | 0.01 | 32 | 1012.7 |
| 20260507194515 | 64 | 252 | 2.0 | 8.0 | 0.00 | 0.20 | 0.01 | 32 | 1013.0 |
| 20260507193018 | 63 | 261 | 2.0 | 8.0 | 0.00 | 0.20 | 0.01 | 32 | 1013.2 |
| 20260507191511 | 64 | 194 | 1.0 | 10.0 | 0.00 | 0.20 | 0.01 | 31 | 1013.5 |
| 20260507190008 | 64 | 246 | 1.0 | 10.0 | 0.00 | 0.20 | 0.01 | 33 | 1013.9 |
| 20260507184506 | 63 | 269 | 2.0 | 8.0 | 0.00 | 0.20 | 0.01 | 29 | 1014.3 |
| 20260507183005 | 62 | 247 | 2.0 | 4.0 | 0.00 | 0.20 | 0.01 | 28 | 1014.3 |
| 20260507181600 | 62 | 190 | 0.0 | 3.0 | 0.00 | 0.20 | 0.01 | 28 | 1014.5 |
| 20260507180108 | 62 | 282 | 0.0 | 3.0 | 0.00 | 0.20 | 0.01 | 29 | 1014.6 |
| 20260507174630 | 62 | 246 | 1.0 | 4.0 | 0.00 | 0.20 | 0.01 | 29 | 1015.1 |
| 20260507173055 | 61 | 244 | 0.0 | 4.0 | 0.00 | 0.20 | 0.01 | 33 | 1015.7 |
| 20260507171605 | 61 | 288 | 2.0 | 7.0 | 0.00 | 0.20 | 0.01 | 29 | 1016.2 |
| 20260507170048 | 61 | 225 | 0.0 | 4.0 | 0.00 | 0.20 | 0.01 | 29 | 1016.5 |
| 20260507164551 | 59 | 289 | 0.0 | 5.0 | 0.00 | 0.20 | 0.01 | 27 | 1016.7 |
| 20260507163043 | 59 | 240 | 3.0 | 7.0 | 0.00 | 0.20 | 0.01 | 28 | 1016.8 |
| 20260507161542 | 58 | 258 | 2.0 | 5.0 | 0.00 | 0.20 | 0.01 | 30 | 1017.1 |
| 20260507160101 | 57 | 260 | 1.0 | 4.0 | 0.01 | 0.20 | 0.01 | 29 | 1017.4 |
| 20260507154536 | 56 | 262 | 1.0 | 5.0 | 0.01 | 0.20 | 0.01 | 29 | 1017.6 |
| 20260507153031 | 55 | 296 | 2.0 | 5.0 | 0.01 | 0.20 | 0.01 | 32 | 1017.7 |
| 20260507151529 | 54 | 239 | 1.0 | 7.0 | 0.01 | 0.20 | 0.01 | 38 | 1017.8 |
| 20260507150028 | 53 | 254 | 1.0 | 4.0 | 0.00 | 0.19 | 0.00 | 38 | 1018.2 |
| 20260507144521 | 52 | 246 | 1.0 | 3.0 | 0.00 | 0.19 | 0.00 | 42 | 1018.2 |
| 20260507143019 | 51 | 267 | 0.0 | 1.0 | 0.00 | 0.19 | 0.00 | 41 | 1018.5 |
| 20260507141515 | 49 | 259 | 1.0 | 4.0 | 0.00 | 0.19 | 0.00 | 43 | 1018.5 |
| 20260507140026 | 47 | 119 | 0.0 | 2.0 | 0.00 | 0.19 | 0.00 | 47 | 1018.7 |
| 20260507134506 | 44 | 237 | 0.0 | 2.0 | 0.00 | 0.19 | 0.00 | 49 | 1018.7 |
| 20260507133002 | 42 | 244 | 0.0 | 2.0 | 0.00 | 0.19 | 0.00 | 52 | 1018.7 |
| 20260507131621 | 40 | 234 | 0.0 | 3.0 | 0.00 | 0.19 | 0.00 | 55 | 1018.6 |
| 20260507130100 | 38 | 239 | 0.0 | 3.0 | 0.00 | 0.19 | 0.00 | 57 | 1018.7 |
| 20260507124555 | 37 | 254 | 0.0 | 3.0 | 0.00 | 0.19 | 0.00 | 58 | 1018.5 |
| 20260507123047 | 35 | 236 | 0.0 | 3.0 | 0.00 | 0.19 | 0.00 | 60 | 1018.5 |
| 20260507121546 | 35 | 249 | 0.0 | 2.0 | 0.00 | 0.19 | 0.00 | 60 | 1018.5 |
| 20260507120044 | 34 | 211 | 0.0 | 3.0 | 0.00 | 0.19 | 0.00 | 62 | 1018.3 |
| 20260507114542 | 33 | 104 | 0.0 | 1.0 | 0.00 | 0.19 | 0.00 | 63 | 1018.4 |
| 20260507113103 | 33 | 257 | 0.0 | 3.0 | 0.00 | 0.19 | 0.00 | 61 | 1018.5 |
| 20260507111541 | 33 | 257 | 0.0 | 2.0 | 0.00 | 0.19 | 0.00 | 63 | 1018.5 |
| 20260507110041 | 33 | 235 | 0.0 | 1.0 | 0.00 | 0.19 | 0.00 | 62 | 1018.6 |
| 20260507104542 | 33 | 270 | 0.0 | 3.0 | 0.00 | 0.19 | 0.00 | 62 | 1018.3 |
| 20260507103037 | 33 | 257 | 0.0 | 3.0 | 0.00 | 0.19 | 0.00 | 63 | 1018.3 |
| 20260507101535 | 31 | 140 | 0.0 | 2.0 | 0.00 | 0.19 | 0.00 | 70 | 1018.5 |
| 20260507100042 | 28 | 111 | 0.0 | 1.0 | 0.00 | 0.19 | 0.00 | 77 | 1018.7 |
| 20260507094531 | 29 | 200 | 0.0 | 0.0 | 0.00 | 0.19 | 0.00 | 76 | 1018.5 |
| 20260507093034 | 29 | 165 | 0.0 | 0.0 | 0.00 | 0.19 | 0.00 | 77 | 1018.6 |
| 20260507091533 | 27 | 165 | 0.0 | 0.0 | 0.00 | 0.19 | 0.00 | 84 | 1018.8 |
| 20260507090026 | 26 | 196 | 0.0 | 0.0 | 0.00 | 0.19 | 0.00 | 86 | 1019.0 |
| 20260507084542 | 26 | 151 | 0.0 | 1.0 | 0.00 | 0.19 | 0.00 | 88 | 1019.0 |
| 20260507083025 | 26 | 171 | 0.0 | 0.0 | 0.00 | 0.19 | 0.00 | 89 | 1019.1 |
| 20260507081521 | 26 | 190 | 0.0 | 0.0 | 0.00 | 0.19 | 0.00 | 91 | 1019.1 |
| 20260507080019 | 26 | 191 | 0.0 | 0.0 | 0.00 | 0.19 | 0.00 | 91 | 1019.4 |
| 20260507074518 | 26 | 204 | 0.0 | 0.0 | 0.00 | 0.19 | 0.00 | 92 | 1019.5 |
| 20260507073022 | 26 | 204 | 0.0 | 0.0 | 0.00 | 0.19 | 0.00 | 92 | 1019.6 |
| 20260507071517 | 26 | 211 | 0.0 | 1.0 | 0.00 | 0.19 | 0.00 | 92 | 1019.6 |
| 20260507070019 | 27 | 136 | 0.0 | 0.0 | 0.00 | 0.19 | 0.00 | 92 | 1019.7 |
| 20260507064512 | 28 | 135 | 0.0 | 1.0 | 0.00 | 0.19 | 0.00 | 92 | 1019.8 |
| 20260507063013 | 28 | 203 | 0.0 | 1.0 | 0.00 | 0.19 | 0.00 | 92 | 1019.7 |
| 20260507061507 | 28 | 198 | 0.0 | 0.0 | 0.00 | 0.19 | 0.00 | 91 | 1019.8 |
| 20260507060006 | 28 | 198 | 0.0 | 0.0 | 0.00 | 0.19 | 0.00 | 91 | 1019.6 |
| 20260507054504 | 29 | 197 | 0.0 | 0.0 | 0.00 | 0.19 | 0.19 | 91 | 1019.5 |
| 20260507053005 | 29 | 198 | 0.0 | 0.0 | 0.00 | 0.19 | 0.19 | 90 | 1019.6 |
| 20260507051503 | 29 | 198 | 0.0 | 0.0 | 0.00 | 0.19 | 0.19 | 90 | 1019.4 |
| 20260507050007 | 30 | 198 | 0.0 | 0.0 | 0.00 | 0.19 | 0.19 | 89 | 1019.4 |
| 20260507044501 | 30 | 198 | 0.0 | 0.0 | 0.00 | 0.19 | 0.19 | 89 | 1019.3 |
| 20260507043001 | 30 | 200 | 0.0 | 1.0 | 0.00 | 0.19 | 0.19 | 88 | 1019.3 |
| 20260507041601 | 31 | 199 | 0.0 | 0.0 | 0.00 | 0.19 | 0.19 | 86 | 1019.3 |
| 20260507040111 | 31 | 194 | 0.0 | 1.0 | 0.00 | 0.19 | 0.19 | 86 | 1019.4 |
| 20260507034605 | 31 | 206 | 0.0 | 0.0 | 0.00 | 0.19 | 0.19 | 85 | 1019.3 |